Time,TemperatureF,DewpointF,PressureIn,WindDirection,WindDirectionDegrees,WindSpeedMPH,WindSpeedGustMPH,Humidity,HourlyPrecipIn,Conditions,Clouds,dailyrainin,SoftwareType,DateUTC
2013-10-14 00:12:00,56.0,47.0,30.29,SSW,207,0.0,1.0,71,0.00,,,0.00,,2013-10-14 05:12:00,
2013-10-14 00:23:00,56.0,46.0,30.29,East,97,0.0,2.0,69,0.00,,,0.00,,2013-10-14 05:23:00,
2013-10-14 00:43:00,56.0,46.0,30.29,East,97,0.0,2.0,68,0.00,,,0.00,,2013-10-14 05:43:00,
2013-10-14 00:52:00,56.0,46.0,30.29,East,97,0.0,1.0,68,0.00,,,0.00,,2013-10-14 05:52:00,
2013-10-14 01:12:00,56.0,46.0,30.30,East,97,0.0,1.0,69,0.00,,,0.00,,2013-10-14 06:12:00,
2013-10-14 01:22:00,56.0,46.0,30.30,East,97,0.0,1.0,69,0.00,,,0.00,,2013-10-14 06:22:00,
2013-10-14 01:42:00,56.0,46.0,30.30,East,96,0.0,1.0,70,0.00,,,0.00,,2013-10-14 06:42:00,
2013-10-14 01:52:00,55.0,46.0,30.30,East,90,0.0,2.0,71,0.00,,,0.00,,2013-10-14 06:52:00,
2013-10-14 02:11:00,55.0,46.0,30.30,ESE,103,0.0,1.0,72,0.00,,,0.00,,2013-10-14 07:11:00,
2013-10-14 02:22:00,55.0,46.0,30.30,ENE,69,0.0,2.0,72,0.00,,,0.00,,2013-10-14 07:22:00,
2013-10-14 02:42:00,55.0,46.0,30.30,ESE,114,0.0,1.0,71,0.00,,,0.00,,2013-10-14 07:42:00,
2013-10-14 02:52:00,54.0,46.0,30.30,ESE,114,0.0,1.0,74,0.00,,,0.00,,2013-10-14 07:52:00,
2013-10-14 03:12:00,54.0,46.0,30.30,SSE,168,0.0,0.0,74,0.00,,,0.00,,2013-10-14 08:12:00,
2013-10-14 03:22:00,54.0,46.0,30.30,SSE,168,0.0,1.0,75,0.00,,,0.00,,2013-10-14 08:22:00,
2013-10-14 03:42:00,54.0,46.0,30.30,South,181,0.0,0.0,74,0.00,,,0.00,,2013-10-14 08:42:00,
2013-10-14 03:52:00,54.0,46.0,30.29,South,181,0.0,0.0,75,0.00,,,0.00,,2013-10-14 08:52:00,
2013-10-14 04:11:00,54.0,46.0,30.29,East,91,0.0,2.0,73,0.00,,,0.00,,2013-10-14 09:11:00,
2013-10-14 04:22:00,54.0,46.0,30.30,SSE,156,0.0,2.0,73,0.00,,,0.00,,2013-10-14 09:22:00,
2013-10-14 04:43:00,54.0,46.0,30.29,SE,127,0.0,1.0,73,0.00,,,0.00,,2013-10-14 09:43:00,
2013-10-14 04:53:00,54.0,46.0,30.29,East,83,0.0,2.0,73,0.00,,,0.00,,2013-10-14 09:53:00,
2013-10-14 05:12:00,53.0,45.0,30.30,ENE,78,0.0,4.0,74,0.00,,,0.00,,2013-10-14 10:12:00,
2013-10-14 05:23:00,54.0,46.0,30.29,NE,46,1.0,3.0,73,0.00,,,0.00,,2013-10-14 10:23:00,
2013-10-14 05:42:00,54.0,46.0,30.29,East,79,2.0,6.0,73,0.00,,,0.00,,2013-10-14 10:42:00,
2013-10-14 05:53:00,54.0,46.0,30.30,ENE,57,1.0,5.0,73,0.00,,,0.00,,2013-10-14 10:53:00,
2013-10-14 06:11:00,53.0,45.0,30.30,NE,51,1.0,4.0,75,0.00,,,0.00,,2013-10-14 11:11:00,
2013-10-14 06:22:00,53.0,46.0,30.31,ENE,69,2.0,8.0,76,0.00,,,0.00,,2013-10-14 11:22:00,
2013-10-14 06:42:00,53.0,46.0,30.31,ENE,69,1.0,4.0,77,0.00,,,0.00,,2013-10-14 11:42:00,
2013-10-14 06:52:00,53.0,46.0,30.31,East,94,0.0,3.0,77,0.00,,,0.00,,2013-10-14 11:52:00,
2013-10-14 07:12:00,53.0,46.0,30.31,ENE,67,0.0,4.0,77,0.00,,,0.00,,2013-10-14 12:12:00,
2013-10-14 07:22:00,53.0,46.0,30.30,ENE,74,0.0,3.0,77,0.00,,,0.00,,2013-10-14 12:22:00,
2013-10-14 07:42:00,52.0,45.0,30.30,NE,51,1.0,4.0,77,0.00,,,0.00,,2013-10-14 12:42:00,
2013-10-14 07:52:00,53.0,46.0,30.31,ENE,72,1.0,4.0,77,0.00,,,0.00,,2013-10-14 12:52:00,
2013-10-14 08:11:00,53.0,46.0,30.30,ENE,68,3.0,7.0,77,0.00,,,0.00,,2013-10-14 13:11:00,
2013-10-14 08:21:00,54.0,47.0,30.31,East,92,1.0,4.0,76,0.00,,,0.00,,2013-10-14 13:21:00,
2013-10-14 08:42:00,55.0,48.0,30.31,East,83,1.0,4.0,76,0.00,,,0.00,,2013-10-14 13:42:00,
2013-10-14 08:52:00,55.0,47.0,30.31,ENE,57,3.0,6.0,74,0.00,,,0.00,,2013-10-14 13:52:00,
2013-10-14 09:11:00,56.0,47.0,30.31,ENE,60,2.0,6.0,73,0.00,,,0.00,,2013-10-14 14:11:00,
2013-10-14 09:22:00,57.0,48.0,30.31,NE,52,2.0,5.0,72,0.00,,,0.00,,2013-10-14 14:22:00,
2013-10-14 09:42:00,58.0,49.0,30.31,ENE,62,1.0,5.0,72,0.00,,,0.00,,2013-10-14 14:42:00,
2013-10-14 09:52:00,58.0,49.0,30.31,East,80,0.0,5.0,72,0.00,,,0.00,,2013-10-14 14:52:00,
2013-10-14 10:11:00,60.0,51.0,30.31,East,98,1.0,7.0,71,0.00,,,0.00,,2013-10-14 15:11:00,
2013-10-14 10:21:00,60.0,51.0,30.30,NE,50,2.0,7.0,71,0.00,,,0.00,,2013-10-14 15:21:00,
2013-10-14 10:44:00,61.0,52.0,30.30,East,84,3.0,6.0,71,0.00,,,0.00,,2013-10-14 15:44:00,
2013-10-14 10:54:00,62.0,53.0,30.30,ESE,104,1.0,7.0,72,0.00,,,0.00,,2013-10-14 15:54:00,
2013-10-14 11:13:00,62.0,53.0,30.30,ENE,75,2.0,4.0,72,0.00,,,0.00,,2013-10-14 16:13:00,
2013-10-14 11:23:00,63.0,54.0,30.29,ENE,77,0.0,4.0,72,0.00,,,0.00,,2013-10-14 16:23:00,
2013-10-14 11:42:00,64.0,54.0,30.29,ENE,61,0.0,4.0,70,0.00,,,0.00,,2013-10-14 16:42:00,
2013-10-14 11:53:00,65.0,55.0,30.29,NW,312,1.0,4.0,70,0.00,,,0.00,,2013-10-14 16:53:00,
2013-10-14 12:12:00,65.0,55.0,30.28,NW,315,0.0,8.0,71,0.00,,,0.00,,2013-10-14 17:12:00,
2013-10-14 12:22:00,66.0,56.0,30.27,East,91,2.0,5.0,70,0.00,,,0.00,,2013-10-14 17:22:00,
2013-10-14 12:42:00,66.0,56.0,30.25,ENE,76,2.0,6.0,71,0.00,,,0.00,,2013-10-14 17:42:00,
2013-10-14 12:52:00,67.0,57.0,30.24,ENE,66,3.0,5.0,70,0.00,,,0.00,,2013-10-14 17:52:00,
2013-10-14 13:12:00,68.0,58.0,30.24,ESE,102,3.0,6.0,71,0.00,,,0.00,,2013-10-14 18:12:00,
2013-10-14 13:22:00,69.0,59.0,30.23,NE,42,1.0,7.0,71,0.00,,,0.00,,2013-10-14 18:22:00,
2013-10-14 13:42:00,70.0,59.0,30.22,NE,51,1.0,5.0,68,0.00,,,0.00,,2013-10-14 18:42:00,
2013-10-14 13:52:00,70.0,59.0,30.21,East,83,1.0,4.0,68,0.00,,,0.00,,2013-10-14 18:52:00,
2013-10-14 14:11:00,70.0,59.0,30.21,SSE,148,2.0,5.0,69,0.00,,,0.00,,2013-10-14 19:11:00,
2013-10-14 14:22:00,70.0,60.0,30.20,East,88,3.0,7.0,70,0.00,,,0.00,,2013-10-14 19:22:00,
2013-10-14 14:42:00,71.0,60.0,30.19,ESE,109,2.0,8.0,69,0.00,,,0.00,,2013-10-14 19:42:00,
2013-10-14 14:52:00,71.0,60.0,30.19,NE,55,4.0,7.0,68,0.00,,,0.00,,2013-10-14 19:52:00,
2013-10-14 15:11:00,72.0,60.0,30.18,SE,124,3.0,8.0,67,0.00,,,0.00,,2013-10-14 20:11:00,
2013-10-14 15:22:00,72.0,61.0,30.18,East,84,3.0,8.0,68,0.00,,,0.00,,2013-10-14 20:22:00,
2013-10-14 15:43:00,72.0,61.0,30.18,East,82,1.0,8.0,68,0.00,,,0.00,,2013-10-14 20:43:00,
2013-10-14 15:52:00,72.0,60.0,30.18,ENE,61,2.0,7.0,67,0.00,,,0.00,,2013-10-14 20:52:00,
2013-10-14 16:12:00,72.0,60.0,30.18,ENE,59,3.0,7.0,67,0.00,,,0.00,,2013-10-14 21:12:00,
2013-10-14 16:22:00,72.0,60.0,30.17,ENE,63,2.0,9.0,66,0.00,,,0.00,,2013-10-14 21:22:00,
2013-10-14 16:44:00,72.0,60.0,30.17,East,80,3.0,6.0,67,0.00,,,0.00,,2013-10-14 21:44:00,
2013-10-14 16:55:00,71.0,60.0,30.16,East,101,2.0,6.0,68,0.00,,,0.00,,2013-10-14 21:55:00,
2013-10-14 17:13:00,71.0,61.0,30.16,ENE,71,2.0,7.0,70,0.00,,,0.00,,2013-10-14 22:13:00,
2013-10-14 17:24:00,71.0,61.0,30.16,ENE,57,1.0,4.0,71,0.00,,,0.00,,2013-10-14 22:24:00,
2013-10-14 17:43:00,70.0,61.0,30.16,ENE,67,1.0,3.0,72,0.00,,,0.00,,2013-10-14 22:43:00,
2013-10-14 17:54:00,70.0,61.0,30.16,ENE,78,0.0,2.0,73,0.00,,,0.00,,2013-10-14 22:54:00,
2013-10-14 18:12:00,69.0,61.0,30.16,ESE,121,0.0,2.0,75,0.00,,,0.00,,2013-10-14 23:12:00,
2013-10-14 18:22:00,69.0,61.0,30.16,ESE,105,0.0,2.0,76,0.00,,,0.00,,2013-10-14 23:22:00,
2013-10-14 18:42:00,68.0,61.0,30.16,ESE,105,0.0,1.0,78,0.00,,,0.00,,2013-10-14 23:42:00,
2013-10-14 18:53:00,67.0,61.0,30.16,ENE,59,0.0,3.0,80,0.00,,,0.00,,2013-10-14 23:53:00,
2013-10-14 19:12:00,66.0,60.0,30.16,ENE,65,0.0,2.0,81,0.00,,,0.00,,2013-10-15 00:12:00,
2013-10-14 19:22:00,65.0,59.0,30.16,ENE,70,0.0,2.0,81,0.00,,,0.00,,2013-10-15 00:22:00,
2013-10-14 19:42:00,65.0,59.0,30.15,ENE,70,0.0,0.0,82,0.00,,,0.00,,2013-10-15 00:42:00,
2013-10-14 19:52:00,64.0,59.0,30.16,ENE,70,0.0,0.0,83,0.00,,,0.00,,2013-10-15 00:52:00,
2013-10-14 20:12:00,64.0,59.0,30.15,ENE,70,0.0,1.0,84,0.00,,,0.00,,2013-10-15 01:12:00,
2013-10-14 20:22:00,64.0,59.0,30.16,ENE,70,0.0,0.0,85,0.00,,,0.00,,2013-10-15 01:22:00,
2013-10-14 20:42:00,63.0,59.0,30.16,ENE,70,0.0,0.0,86,0.00,,,0.00,,2013-10-15 01:42:00,
2013-10-14 20:52:00,63.0,59.0,30.17,ENE,73,0.0,2.0,86,0.00,,,0.00,,2013-10-15 01:52:00,
2013-10-14 21:12:00,63.0,59.0,30.17,ENE,73,0.0,2.0,86,0.00,,,0.00,,2013-10-15 02:12:00,
2013-10-14 21:22:00,63.0,59.0,30.17,SSW,202,0.0,1.0,86,0.00,,,0.00,,2013-10-15 02:22:00,
2013-10-14 21:42:00,62.0,58.0,30.17,ENE,77,0.0,0.0,87,0.00,,,0.00,,2013-10-15 02:42:00,
2013-10-14 21:52:00,62.0,58.0,30.16,ENE,67,0.0,3.0,87,0.00,,,0.00,,2013-10-15 02:52:00,
2013-10-14 22:12:00,62.0,58.0,30.16,East,88,0.0,2.0,88,0.00,,,0.00,,2013-10-15 03:12:00,
2013-10-14 22:23:00,62.0,58.0,30.15,East,84,0.0,3.0,87,0.00,,,0.00,,2013-10-15 03:23:00,
2013-10-14 22:44:00,62.0,58.0,30.15,East,91,0.0,1.0,87,0.00,,,0.00,,2013-10-15 03:44:00,
2013-10-14 22:55:00,62.0,58.0,30.15,NE,53,1.0,3.0,87,0.00,,,0.00,,2013-10-15 03:55:00,
2013-10-14 23:14:00,63.0,58.0,30.15,ENE,67,0.0,2.0,85,0.00,,,0.00,,2013-10-15 04:14:00,
2013-10-14 23:24:00,63.0,59.0,30.15,ESE,107,0.0,2.0,86,0.00,,,0.00,,2013-10-15 04:24:00,
2013-10-14 23:43:00,63.0,59.0,30.15,ESE,107,0.0,1.0,87,0.00,,,0.00,,2013-10-15 04:43:00,
2013-10-14 23:54:00,62.0,58.0,30.14,NNE,24,0.0,1.0,87,0.00,,,0.00,,2013-10-15 04:54:00,